This is the latest recevied weather packets stored in our database for station/object N7YET. If no packets are shown the sender has not sent any weather packets the latest 10 day(s).
| Time | Temp. | Humidity | Pressure | Rain* | Wind** | Luminosity | Snow |
|---|---|---|---|---|---|---|---|
| 1777499770 | 11.67° C | 44% | 1231.9 hPa | 0 mm | - | - | - |
| 1777499170 | 10.56° C | 45% | 1231.9 hPa | 0 mm | - | - | - |
| 1777498568 | 10.56° C | 46% | 1231.9 hPa | 0 mm | - | - | - |
| 1777497968 | 11.11° C | 45% | 1231.9 hPa | 0 mm | - | - | - |
| 1777497368 | 11.67° C | 46% | 1231.9 hPa | 0 mm | - | - | - |
| 1777496767 | 11.67° C | 49% | 1231.9 hPa | 0 mm | - | - | - |
| 1777496166 | 11.67° C | 51% | 1231.9 hPa | 0 mm | - | - | - |
| 1777495566 | 10.56° C | 52% | 1231.9 hPa | 0 mm | - | - | - |
| 1777494965 | 10.56° C | 54% | 1231.9 hPa | 0 mm | - | - | - |
| 1777494365 | 9.44° C | 52% | 1231.9 hPa | 0 mm | - | - | - |
| 1777493764 | 8.89° C | 51% | 1231.9 hPa | 0 mm | - | - | - |
| 1777493163 | 10.56° C | 43% | 1231.9 hPa | 0 mm | - | - | - |
| 1777492563 | 12.22° C | 39% | 1231.9 hPa | 0 mm | - | - | - |
| 1777491962 | 12.22° C | 40% | 1231.9 hPa | 0 mm | - | - | - |
| 1777491362 | 11.67° C | 39% | 1231.9 hPa | 0 mm | - | - | - |
| 1777490761 | 11.11° C | 41% | 1231.9 hPa | 0 mm | - | - | - |
| 1777490161 | 11.11° C | 40% | 1231.9 hPa | 0 mm | - | - | - |
| 1777489560 | 11.11° C | 43% | 1231.9 hPa | 0 mm | - | - | - |
| 1777488959 | 10.56° C | 39% | 1231.9 hPa | 0 mm | - | - | - |
| 1777488359 | 11.11° C | 40% | 1231.9 hPa | 0 mm | - | - | - |
| 1777487758 | 10.56° C | 41% | 1231.9 hPa | 0 mm | - | - | - |
| 1777487157 | 10.56° C | 42% | 1231.9 hPa | 0 mm | - | - | - |
| 1777486557 | 10.56° C | 44% | 1231.9 hPa | 0 mm | - | - | - |
| 1777485956 | 9.44° C | 45% | 1231.9 hPa | 0 mm | - | - | - |
| 1777485356 | 9.44° C | 46% | 1231.9 hPa | 0 mm | - | - | - |
* Rain latest hour (hover to see other rain measurements)
** Current wind speed in m/s (hover to see current wind gust speed)